Погода в Городовиковске

Россия / Республика Калмыкия     46°04′59″N   41°56′09″E
темп.,
°C
ветер,
м/с
пор.,
м/с
влажн.,
%
обл.,
%
осадки,
мм/ч
давл.,
гПа
погр.,
м
8 мая, сб
сб800:00+12зюз2284100 0.0 101811
03:00+12ююз118493 0.0 101710
06:00+13юв238410 0.0 101757
09:00+19юв4564100 0.0 1016592
12:00+22юв555285 0.0 10141312
15:00+24ююв564781 0.0 10131765
18:00+21ююв4868100 0.0 1011204
21:00+16ююв487621 0.0 1012110
9 мая, вс
вс900:00+14юв4107689 0.0 1009158
03:00+14ю3773100 0.0 1009161
06:00+15зюз2278100 0.0 100945
09:00+16з6880100 0.0 1009529
12:00+13сз6795100 3.6 1011532
15:00+7сз91394100 10.4 1015770
18:00+7сз71390100 0.5 1018991
21:00+8зсз6109099 0.6 1020521
10 мая, пн
пн1000:00+6зсз6129036 0.0 1021375
03:00+7з4988100 0.1 1021327
06:00+6з59945 0.3 1021311
09:00+10зсз796517 0.4 10201338
12:00+12зсз8105597 0.3 10191967
15:00+10зсз8117233 0.8 10181317
18:00+8з7108040 0.3 10181095
21:00+7зюз81290100 0.7 10181047
11 мая, вт
вт1100:00+7юз91492100 1.6 10161170
03:00+7юз91493100 3.1 10161195
06:00+7ююз91793100 4.0 10161266
09:00+8ю71484100 7.9 10171252
12:00+12ю71276100 1.4 10171575
15:00+11ююз4879100 3.7 1019974
18:00+9сз3390100 0.6 1020164
21:00+8с369586 0.8 1020172
12 мая, ср
ср1200:00+6св48967 0.0 1020157
03:00+6св47965 0.0 1019135
06:00+8в489174 0.0 1018189
09:00+14вюв6106817 0.0 1018835
12:00+18вюв68545 0.0 10171529
15:00+20вюв575224 0.0 10171714
18:00+18в36680 0.0 1016198
21:00+13в45744 0.0 101657